Flag for China Weather past 2 weeks in Taiyuan, Shanxi, China

Now
77 °F

Clear.


Feels Like: 79 °F
Forecast: 73 / 90 °F
Wind: 13 mph from East

Location: Taiyuan Airport

Current Time: Jul 31, 2015 at 8:11:19 AM

Latest Report: Jul 31, 2015 at 7:30 AM


Visibility: 4 mi

Pressure: 29.77 "Hg (27.19 "Hg at 790m altitude)

Humidity: 74%

Dew point: 68 °F

Location of TaiyuanLocation

Historic Weather in Taiyuan — Graph

°F

Taiyuan temperature yesterday

Maximum temperature yesterday: 99 °F (at 5:00 PM)
Minimum temperature yesterday: 70 °F (at 4:00 AM)
Average temperature yesterday: 82 °F

Past Weeks' High & Low Weather Summary

 TemperatureHumidityPressure
High99 °F (Jul 30, 5:00 PM)94% (Jul 18, 5:00 AM)29.89 "Hg (Jul 18, 5:00 AM)
Low61 °F (Jul 25, 4:00 AM)19% (Jul 23, 6:30 PM)29.62 "Hg (Jul 30, 3:30 PM)
Average77 °F59%29.76 "Hg
* Reported Jul 16 7:00 AM — Jul 31 7:00 AM, Taiyuan, Weather by CustomWeather, © 2015

Note: Actual official high and low records may vary slightly from our data, if they occured in-between our weather recording intervals... More about our weather records

Advertising

Taiyuan weather history for previous 24 hours

 ConditionsComfort  
Time TempWeatherWind HumidityBarometerVisibility
7:00 AM
Fri, Jul 31
77 °FClear.10 mph74%29.77 "Hg4 mi
6:30 AM77 °FFog.8 mph74%29.77 "Hg3 mi
6:00 AM77 °FHaze.10 mph74%29.77 "Hg2 mi
5:30 AM77 °FHaze.6 mph74%29.77 "Hg3 mi
5:00 AM77 °FHaze.8 mph74%29.74 "Hg3 mi
4:30 AM77 °FHaze.6 mph74%29.74 "Hg3 mi
4:00 AM77 °FHaze.8 mph74%29.74 "Hg3 mi
3:30 AM77 °FHaze.6 mph74%29.74 "Hg3 mi
3:00 AM77 °FHaze.8 mph74%29.74 "Hg3 mi
2:30 AM77 °FHaze.8 mph74%29.74 "Hg3 mi
2:00 AM77 °FHaze.6 mph69%29.71 "Hg3 mi
1:30 AM77 °FHaze.8 mph69%29.74 "Hg3 mi
1:00 AM77 °FHaze.8 mph69%29.74 "Hg3 mi
12:30 AM77 °FHaze.8 mph69%29.74 "Hg3 mi
12:00 AM77 °FHaze.13 mph69%29.74 "Hg3 mi
11:30 PM
Thu, Jul 30
77 °FHaze.10 mph69%29.74 "Hg3 mi
11:00 PM77 °FHaze.13 mph69%29.71 "Hg3 mi
10:30 PM77 °FPassing clouds.10 mph69%29.71 "Hg3 mi
10:00 PM79 °FPassing clouds.8 mph70%29.74 "Hg3 mi
9:30 PM79 °FPassing clouds.15 mph70%29.71 "Hg3 mi
9:00 PM79 °FPassing clouds.13 mph70%29.71 "Hg3 mi
8:30 PM81 °FPassing clouds.15 mph62%29.68 "Hg3 mi
8:00 PM81 °FPassing clouds.15 mph62%29.68 "Hg2 mi
7:30 PM82 °FScattered clouds.17 mph62%29.68 "Hg2 mi
7:00 PM84 °FScattered clouds.17 mph58%29.65 "Hg3 mi
6:30 PM84 °FScattered clouds.20 mph55%29.62 "Hg3 mi
6:00 PM90 °FPartly sunny.15 mph49%29.62 "Hg3 mi
5:30 PM95 °FPartly sunny.6 mph30%29.62 "HgN/A
5:00 PM99 °FScattered clouds.3 mph25%29.62 "HgN/A
4:30 PM95 °FPassing clouds.3 mph28%29.62 "HgN/A
4:00 PM97 °FPassing clouds.3 mph28%29.62 "HgN/A
3:30 PM95 °FPassing clouds.3 mph30%29.62 "HgN/A
3:00 PM95 °FScattered clouds.3 mph28%29.65 "HgN/A
2:30 PM95 °FScattered clouds.6 mph28%29.65 "HgN/A
2:00 PM97 °FScattered clouds.6 mph32%29.65 "HgN/A
1:30 PM95 °FPassing clouds.6 mph34%29.68 "HgN/A
1:00 PM93 °FPassing clouds.3 mph36%29.68 "HgN/A
12:30 PM91 °FPassing clouds.6 mph38%29.68 "HgN/A
12:00 PM90 °FPassing clouds.3 mph43%29.71 "HgN/A
11:30 AM88 °FClear.3 mph43%29.71 "Hg5 mi
11:00 AM88 °FClear.3 mph46%29.74 "Hg5 mi
10:30 AM86 °FClear.3 mph46%29.74 "Hg5 mi
10:00 AM86 °FClear.3 mph49%29.74 "Hg4 mi
9:30 AM82 °FClear.3 mph55%29.74 "Hg4 mi
9:00 AM81 °FClear.1 mph58%29.74 "Hg4 mi
8:30 AM81 °FClear.1 mph58%29.74 "Hg4 mi
8:00 AM79 °FClear.1 mph61%29.74 "Hg4 mi
Weather by CustomWeather, © 2015

See weather overviewHow to use our weather pages